Regional Weather Roundup
Issued by NWS Kansas City/Pleasant Hill, MO

Home | Current Version | Previous Version | Text Only | Print | Product List | Glossary On
Versions: 1 2 3 4 5 6 7 8 9 10 11 12 13 14 15 16 17 18 19 20 21 22 23 24 25 26 27 28 29 30 31 32 33 34 35 36 37 38 39 40 41 42 43 44 45 46 47 48 49 50
000
ASUS43 KEAX 290510
RWREAX

WEATHER ROUNDUP FOR EASTERN KANSAS AND NORTHWEST MISSOURI
NATIONAL WEATHER SERVICE KANSAS CITY/PLEASANT HILL MO
1100 PM CST FRI NOV 28 2014

KSZ040-057-103>105-MOZ028-029-037-043-290600-
...KANSAS CITY METROPOLITAN AREA...

CITY           SKY/WX    TMP DP  RH WIND       PRES   REMARKS
K.C. INTL      CLOUDY    52  38  58 S16       29.72F
K.C. DOWNTOWN  CLOUDY    55  38  52 SW13      29.73F
LEES SUMMIT    CLOUDY    54  39  57 SW17G24   29.75F
OLATHE - IXD   CLOUDY    53  39  59 S15       29.75F
OLATHE - OJC   CLOUDY    51  39  63 SW14      29.75F
LAWRENCE       CLOUDY    53  37  54 SW10      29.75F

$$

MOZ001>008-011>017-020>025-030>033-038>040-044>046-053-054-290600-
...NORTHERN AND CENTRAL MISSOURI...

CITY           SKY/WX    TMP DP  RH WIND       PRES   REMARKS
ST. JOSEPH     MOCLDY    50  37  61 SW16      29.69F
MOSBY          MOCLDY    52  37  58 S5        29.73F
WARRENSBURG    CLOUDY    50  37  62 S13G20    29.77F
WHITEMAN AFB   CLOUDY    52  39  61 SW21G26   29.76F
CLINTON        CLOUDY    54  39  58 S13       29.81F
SEDALIA        CLOUDY    54  39  57 SW18G26   29.78F
WARSAW         NOT AVBL
MARSHALL       MOCLDY    52  41  66 SW14      29.77F
CHILLICOTHE      N/A     47  36  65 S7        29.73F
KIRKSVILLE     MOCLDY    44  36  73 S9        29.74F

$$

MOZ041-047>049-056>058-063>065-088>090-097-290600-
...EASTERN AND SOUTHERN MISSOURI...

CITY           SKY/WX    TMP DP  RH WIND       PRES   REMARKS
ST. LOUIS INTL CLOUDY    44  34  67 S9        29.90F
SPIRIT OF STL  CLOUDY    41  33  73 CALM      29.88F
COLUMBIA       MOCLDY    48  36  63 S13       29.81F
JEFFERSON CITY MOCLDY    49  35  58 SE6       29.84F
MEXICO         MOCLDY    46  39  76 S14       29.81F
ROLLA          MOCLDY    45  34  65 S16       29.85S
LEBANON        FAIR      46  36  66 S12       29.86F
OSAGE BEACH    PTCLDY    46  34  61 S7        29.84F
SPRINGFIELD    MOCLDY    47  36  65 S10       29.87F
BRANSON        PTCLDY    50  41  71 S6        29.92F
JOPLIN         CLOUDY    56  45  66 MISG      29.85F
WEST PLAINS    CLOUDY    44  33  65 S8        29.94F

$$

IAZ060-094-KSZ022-034>040-054-083-096-NEZ052-066-093-290600-
...KANSAS...SOUTHEAST NEBRASKA AND IOWA...

CITY           SKY/WX    TMP DP  RH WIND       PRES   REMARKS
TOPEKA         CLOUDY    56  38  50 SW9       29.73F
MANHATTAN      CLOUDY    52  38  58 SW10      29.71F
EMPORIA        CLOUDY    50  38  63 S15       29.76F
CHANUTE        CLOUDY    54  44  69 S14       29.81F
WICHITA        CLOUDY    50  40  68 S7        29.75F
OMAHA          MOCLDY    37  31  78 SE8       29.62S WCI  31
LINCOLN        PTCLDY    46  32  58 SE5       29.63F
FALLS CITY     MOCLDY    54  37  52 SW21      29.64F
LAMONI         MOCLDY    41  33  73 S13       29.67F WCI  34
DES MOINES     PTCLDY    37  30  75 SE6       29.66F WCI  32

$$




USA.gov is the U.S. government's official web portal to all federal, state and local government web resources and services.